#timestamp,LO_Frequency,Hit,StdDev 
1570273215.3,286046997.6,N
1570273235.2,286046995.0,N
1570273255.0,286046997.0,N
1570273255.9,286046997.0,N
1570273275.8,286046999.6,N
1570273295.6,286046999.3,N
1570273315.4,286047000.7,N
1570273335.3,286046998.9,N
1570273355.1,286046998.8,N
1570273375.9,286046998.8,N
1570273395.7,286046997.4,N
1570273415.5,286046995.1,N
1570273435.4,286046996.7,N
1570273455.2,286046997.2,N
1570273475.0,286046996.7,N
1570273475.9,286046996.7,N
1570273495.8,286046998.3,N
1570273515.6,286046999.4,N
1570273535.5,286046997.5,N
1570273555.3,286046997.1,N
1570273575.1,286046997.2,N
1570273595.9,286046999.0,N
1570273615.7,286046999.3,N
1570273635.6,286046998.4,N
1570273655.4,286046997.6,N
1570273675.2,286046995.6,Y
1570273695.1,286046996.9,P
1570273696.0,286046996.9,P
1570273715.8,286046999.5,N
1570273735.7,286046999.3,N
1570273755.5,286046998.4,N
1570273775.3,286046996.6,Y
1570273795.2,286047001.1,P
1570273815.0,286046998.6,N
1570273815.9,286046998.6,N
1570273835.7,286046998.1,N
1570273855.6,286047000.3,N
1570273875.4,286047000.9,N
1570273895.3,286046998.1,N
1570273915.1,286046998.3,N
1570273916.0,286046998.3,N
1570273935.8,286047000.5,N
1570273955.7,286047000.5,N
1570273975.5,286047000.9,N
1570273995.3,286047000.9,N
1570274015.2,286047000.2,N
1570274035.0,286047000.8,N
1570274035.9,286047000.8,N
1570274055.8,286046998.2,N
1570274075.6,286046998.7,N
1570274095.4,286046999.3,N
1570274115.3,286047000.2,N
1570274135.1,286047000.9,N
1570274155.8,286047000.1,N
1570274175.7,286047000.3,N
1570274195.5,286046999.7,N
1570274215.4,286047002.6,N
1570274235.2,286047001.8,N
1570274255.0,286046999.7,N
1570274255.9,286046999.7,N
1570274275.8,286047002.4,N
1570274295.6,286047001.6,N
1570274315.4,286047001.6,N
1570274335.3,286047001.9,N
1570274355.1,286047000.6,N
1570274375.9,286047001.1,N
1570274395.7,286047002.8,N
1570274415.5,286047001.0,N
1570274435.4,286047000.4,N
1570274455.2,286047000.5,N
1570274475.0,286047002.8,N
1570274475.9,286047002.8,N
1570274495.8,286047000.2,N
1570274515.6,286047001.0,N
1570274535.4,286046999.7,N
1570274555.3,286047000.8,N
1570274575.1,286047002.4,N
1570274595.9,286047002.8,N
1570274615.7,286046999.7,N
1570274635.5,286046998.1,N
1570274655.4,286046999.9,N
1570274675.2,286047000.0,N
1570274695.0,286047002.7,N
1570274695.9,286047002.7,N
1570274715.8,286047004.0,Y
1570274735.6,286047002.3,P
1570274755.5,286046999.8,N
1570274775.3,286046998.3,N
1570274795.1,286046999.3,N
1570274815.9,286047001.1,N
1570274835.7,286046997.0,N
1570274855.6,286046997.4,N
1570274875.4,286046997.4,N
1570274895.2,286046997.2,N
1570274915.1,286046997.9,N
1570274916.0,286046997.9,N
1570274935.8,286046997.7,N
1570274955.6,286046996.7,N
1570274975.5,286046997.7,N
1570274995.3,286046997.2,N
1570275015.1,286046997.2,N
1570275035.9,286046997.7,N
1570275055.7,286046997.3,N
1570275075.6,286046999.1,N
1570275095.4,286046999.0,N
1570275115.2,286046998.7,N
1570275135.1,286046996.6,N
1570275136.0,286046996.6,N
1570275155.8,286046997.4,N
1570275175.6,286046996.8,N
1570275195.5,286046996.5,N
1570275215.3,286046998.9,N
1570275235.2,286046996.6,N
1570275255.9,286046999.1,N
1570275275.7,286046998.3,N
1570275295.6,286046997.6,N
1570275315.4,286046997.9,N
1570275335.2,286046997.4,N
1570275355.1,286046997.8,N
1570275356.0,286046997.8,N
1570275375.8,286046998.0,N
1570275395.7,286046997.3,Y
1570275415.5,286046999.8,P
1570275435.3,286047000.1,N
1570275455.2,286047000.2,N
1570275475.0,286047002.2,N
1570275475.9,286047002.2,N
1570275495.7,286046998.6,N
1570275515.6,286047001.4,N
1570275535.4,286047002.4,N
1570275555.3,286047001.5,N
1570275575.1,286046999.8,N
1570275576.0,286046999.8,N
1570275595.8,286047000.4,N
1570275615.7,286047000.4,N
1570275635.5,286047000.1,N
1570275655.3,286047002.6,N
1570275675.2,286047002.7,N
1570275695.0,286047002.8,N
1570275695.9,286047002.8,N
1570275715.8,286047000.3,N
1570275735.6,286047000.3,N
1570275755.4,286047001.0,N
1570275775.3,286047001.0,N
1570275795.1,286047000.3,N
1570275815.8,286047000.7,N
1570275835.7,286047001.2,N
1570275855.5,286046998.8,N
1570275875.4,286046998.1,N
1570275895.2,286047001.2,N
1570275915.0,286047000.4,N
1570275915.9,286047000.4,N
1570275935.8,286046998.7,N
1570275955.6,286046998.9,N
1570275975.4,286046998.1,N
1570275995.3,286047001.1,N
1570276015.1,286047000.5,N
1570276035.9,286047001.2,N
1570276055.7,286047001.1,N
1570276075.5,286047000.7,N
1570276095.4,286046999.6,N
1570276115.2,286046996.5,N
1570276135.0,286046998.7,N
1570276135.9,286046998.7,N
1570276155.8,286046999.3,N
1570276175.6,286046999.1,N
1570276195.5,286046999.0,N
1570276215.3,286047001.0,N
1570276235.1,286046999.8,N
1570276255.9,286047000.9,N
1570276275.7,286046998.1,N
1570276295.5,286046999.4,N
1570276315.4,286046999.0,N
1570276335.2,286046999.3,N
1570276355.1,286046996.9,N
1570276356.0,286046996.9,N
1570276375.8,286046997.8,N
1570276395.6,286046997.3,N
1570276415.5,286046997.7,N
1570276435.3,286046997.5,N
1570276455.1,286046995.1,Y
1570276475.9,286046996.7,P
1570276495.7,286047001.1,N
1570276515.6,286047001.2,N
1570276535.4,286047000.6,N
1570276555.2,286047001.2,N
1570276575.1,286046999.6,N
1570276576.0,286046999.6,N
1570276595.8,286046996.6,N
1570276615.6,286046998.8,N
1570276635.5,286046998.4,N
1570276655.3,286046999.4,N
1570276675.2,286046999.6,N
1570276695.9,286046999.5,N
1570276715.7,286046996.5,N
1570276735.6,286046996.6,N
1570276755.4,286046996.8,N
1570276775.2,286046999.4,N
1570276795.1,286046999.1,N
1570276796.0,286046999.1,N
